GFSNGP_sfc_30mbdewp_276.txt.gz
Dewpoint
20 16 13 11 12 12 13 15 15 15 9 7 15 27 31 34 35 35 34 33 31 30 30 30 30 29 28 29 28 28 27 26 28 30 31 31 31 32 32 31 31 31 31 31
23 21 17 13 11 12 12 14 15 16 15 16 17 30 34 34 35 35 34 33 31 31 30 30 30 29 28 29 28 28 27 26 28 29 30 31 31 32 32 31 31 30 30 30
20 19 16 14 16 11 11 12 13 13 16 18 23 31 33 34 35 35 35 33 32 31 30 31 30 29 29 29 29 28 28 27 28 28 29 30 30 30 31 31 31 29 30 29
20 21 18 16 16 15 13 12 12 14 14 15 21 28 32 34 35 35 35 33 33 32 31 31 30 29 30 29 29 29 28 26 27 28 28 28 29 29 30 30 30 29 28 29
17 17 19 15 14 13 11 11 13 13 15 15 15 18 28 33 35 35 35 35 34 33 32 31 30 29 30 29 29 29 28 25 26 27 27 28 27 28 28 27 28 27 26 27
14 17 14 16 18 18 18 13 15 15 16 16 15 16 19 30 33 34 35 36 35 34 33 32 31 30 30 29 29 28 28 25 26 27 26 26 27 26 27 25 24 23 24 27
15 15 16 20 22 20 14 14 15 16 17 18 17 20 21 32 35 34 35 35 35 34 33 32 31 31 29 29 28 28 28 26 26 26 26 27 27 26 25 23 25 25 24 26
15 15 12 17 21 19 27 28 29 28 22 21 23 23 26 34 34 33 33 34 34 33 33 33 32 31 29 28 29 29 27 25 26 26 25 26 26 26 24 25 25 26 26 26
19 18 16 27 27 26 21 21 24 28 27 26 27 28 27 31 33 33 32 33 33 32 32 31 31 30 29 29 28 29 26 24 25 26 24 25 25 25 24 24 24 24 24 25
14 14 20 20 18 23 19 16 19 25 25 29 27 27 30 32 33 33 32 33 32 31 31 31 30 29 29 29 29 27 25 24 25 24 23 23 22 23 23 24 24 23 23 23
4 5 6 12 21 21 16 13 13 22 26 28 25 27 28 31 32 32 32 32 31 31 31 31 30 29 29 29 27 25 24 24 24 23 23 23 22 23 23 25 26 25 25 22
2 3 4 5 7 9 8 8 12 19 23 21 22 26 28 29 32 32 32 31 30 30 30 30 29 28 29 28 26 24 23 23 22 23 23 23 24 25 26 25 25 23 21 22
2 4 4 5 5 5 5 6 12 16 15 21 21 21 28 29 31 32 31 31 30 30 30 29 28 28 29 28 26 25 24 22 23 23 23 23 23 24 24 25 24 22 19 19
3 1 2 4 5 6 7 11 12 9 11 20 20 20 29 29 31 31 30 30 29 30 30 29 28 29 29 29 26 24 23 24 24 24 24 25 24 25 25 24 22 17 16 16
4 4 4 5 3 3 6 10 11 10 16 20 19 23 30 30 31 31 30 29 29 29 29 29 29 29 30 29 26 24 24 23 24 25 26 24 24 24 24 22 19 17 13 13
6 5 5 5 6 4 4 1 12 15 19 18 19 27 31 31 31 31 30 29 29 29 29 29 29 30 31 29 26 26 26 24 26 26 26 24 24 22 20 18 16 14 13 12
6 5 6 7 7 7 5 6 13 14 15 15 19 31 33 32 31 30 29 29 30 30 30 30 30 31 32 29 28 29 29 28 26 26 24 24 23 21 18 17 16 15 15 13
7 7 6 8 10 12 11 13 16 15 16 17 26 35 34 33 31 29 30 30 31 31 30 30 31 32 30 30 29 30 31 30 27 26 25 25 23 21 19 18 16 15 14 12
10 9 10 11 11 12 13 13 13 14 20 22 32 36 36 35 33 31 31 31 32 30 31 32 31 31 30 30 30 32 31 28 26 26 26 25 24 22 20 19 17 16 15 11
10 11 13 12 12 13 13 13 12 17 21 26 36 36 35 34 33 32 31 32 32 32 32 32 31 31 30 29 32 32 30 29 28 29 29 27 27 27 25 21 20 19 18 17
11 14 15 16 16 16 16 17 21 21 25 31 35 35 34 34 32 32 32 32 34 33 33 30 31 32 31 31 32 32 31 31 31 30 29 29 28 26 25 23 21 20 19 17
11 11 15 18 19 18 17 20 19 23 31 35 35 34 33 32 31 32 32 33 35 32 31 31 32 31 31 30 32 32 32 31 31 30 30 29 28 27 26 25 22 21 19 19
14 13 16 20 20 18 16 16 19 23 32 35 34 33 32 32 31 31 31 34 33 31 32 33 31 30 29 31 33 32 31 31 31 30 29 29 29 28 27 25 24 21 19 18
18 16 17 19 19 17 15 15 18 27 33 34 34 33 32 32 32 33 34 33 32 30 33 32 30 29 28 33 32 32 31 31 30 30 29 28 29 28 26 25 23 22 19 16
22 21 20 20 19 19 17 19 24 31 32 33 32 32 32 33 33 34 33 32 30 32 33 29 29 28 32 32 32 31 31 31 31 30 28 28 27 26 26 24 24 22 19 15
31 28 25 22 22 22 28 32 33 33 33 33 32 33 33 33 34 33 32 30 30 32 31 30 29 31 32 31 30 30 30 29 28 29 28 27 26 26 25 24 24 21 19 17
32 33 33 34 37 36 34 34 34 34 33 32 32 33 34 33 32 32 31 30 31 31 31 31 31 31 31 30 30 29 29 28 28 28 28 27 26 26 25 25 24 22 20 17

GFSNGP_sfc_30mbdewp_279.txt.gz
Dewpoint
22 19 15 14 14 10 8 9 11 13 9 10 9 15 16 18 25 32 34 35 33 32 31 30 30 30 30 29 29 28 28 27 29 31 32 32 32 32 32 32 31 31 32 31
20 21 21 20 19 14 10 8 8 10 12 14 12 10 14 20 28 31 33 35 33 32 31 30 29 29 29 29 28 27 27 27 29 30 30 31 32 32 33 32 31 31 30 30
17 19 19 18 17 16 12 11 9 9 11 13 14 15 23 27 31 32 34 35 33 33 32 32 30 30 30 30 29 27 27 27 29 29 30 31 32 32 32 32 31 31 30 30
13 15 17 22 20 15 12 12 12 11 12 12 13 16 24 29 32 33 34 35 33 34 33 32 32 30 31 30 29 28 27 27 27 28 29 30 30 30 32 32 30 30 30 30
13 10 14 14 15 13 10 10 12 13 12 12 13 15 22 26 32 34 35 37 36 35 35 33 31 31 31 30 29 28 27 26 26 27 28 28 28 30 30 30 30 29 28 29
12 10 8 11 14 15 19 15 24 26 23 12 13 15 15 21 29 34 36 37 38 36 35 34 33 32 32 30 29 28 27 26 26 27 27 27 28 29 28 28 28 25 27 28
11 12 9 9 11 14 20 24 26 29 27 28 21 15 17 20 27 36 37 38 38 36 35 34 34 33 32 31 30 29 28 26 26 26 26 27 28 28 27 25 24 24 25 28
10 8 8 9 13 12 29 25 22 27 26 29 30 28 27 22 27 35 36 37 37 36 35 35 34 33 32 31 31 29 28 25 26 26 25 27 27 27 25 25 27 26 27 27
20 20 14 21 28 25 24 20 18 17 22 27 29 29 29 28 26 32 34 35 36 36 35 35 34 33 32 32 31 30 27 25 25 25 24 26 26 26 25 26 27 26 26 27
8 9 13 17 25 18 18 20 17 14 14 21 28 25 26 29 27 31 32 33 35 35 35 35 33 32 32 31 30 29 26 25 26 25 24 25 25 25 25 26 25 23 23 24
3 5 6 7 9 16 31 17 10 13 11 14 22 21 23 25 29 30 31 32 34 35 35 34 33 32 32 31 30 28 26 25 26 25 25 24 24 24 24 29 27 25 25 24
4 4 3 4 5 6 6 6 7 9 9 11 18 17 21 23 26 29 31 31 34 35 34 34 33 32 31 31 30 27 25 25 26 26 25 24 26 27 26 26 24 24 23 22
4 4 4 5 5 4 4 4 4 6 8 11 16 13 17 23 24 30 31 32 33 34 34 34 32 31 31 31 29 27 25 26 26 26 25 26 26 26 24 24 22 20 21 21
4 3 5 4 4 4 3 3 5 6 9 10 11 12 19 23 23 30 30 32 34 33 34 33 32 31 31 31 28 27 26 25 26 27 26 28 25 25 24 22 18 15 18 17
7 4 5 5 4 3 3 4 4 4 3 3 11 13 19 22 24 31 31 32 33 32 33 33 32 31 32 30 27 27 25 25 27 28 29 27 27 27 25 22 18 14 15 15
7 6 7 7 7 5 3 4 4 5 3 5 10 12 20 20 23 32 32 32 32 32 32 33 32 32 32 30 27 28 26 25 28 29 29 28 28 28 27 24 22 18 12 14
6 7 10 9 8 9 7 5 3 4 8 9 7 16 18 18 25 34 32 31 32 33 33 33 32 32 32 29 29 29 28 28 29 30 29 28 28 27 25 23 22 19 19 18
14 13 13 12 13 12 10 9 10 8 9 11 11 16 19 20 29 36 33 32 33 33 34 33 33 33 32 30 30 30 29 30 31 31 29 29 28 26 24 22 21 21 21 19
20 21 17 14 14 13 12 11 9 11 13 14 16 20 23 28 37 38 38 35 34 34 34 34 33 33 31 31 32 32 31 31 31 30 30 29 27 25 25 24 23 23 20 13
31 30 29 19 15 16 14 13 11 12 13 18 20 21 28 33 35 37 38 35 35 35 35 35 33 34 31 31 33 33 32 31 30 30 30 29 29 28 27 25 26 26 23 18
28 31 33 27 17 18 17 17 17 16 18 16 21 25 28 34 37 38 36 36 37 36 36 34 34 34 33 33 34 33 32 31 31 32 31 31 31 30 28 27 27 27 26 25
28 33 36 26 17 17 19 19 16 19 20 18 22 27 34 36 37 37 37 35 38 35 36 34 34 34 33 33 34 33 32 32 33 32 33 32 31 30 29 28 28 27 27 26
30 35 34 23 18 16 16 17 18 18 20 21 23 35 36 36 37 35 35 37 38 35 35 35 35 32 32 34 34 33 33 33 33 32 32 32 31 31 29 28 28 27 27 26
33 34 25 22 16 15 15 16 17 17 19 21 28 36 35 37 37 37 37 37 36 34 35 35 32 31 31 35 35 34 34 34 33 33 32 32 31 31 29 29 28 28 27 25
34 28 17 16 15 16 15 16 17 17 17 19 20 32 36 36 37 37 37 37 34 34 35 32 30 30 35 35 35 34 34 33 33 32 31 31 31 30 30 29 28 27 26 24
35 24 18 16 16 17 18 18 19 19 20 23 29 36 38 37 37 37 37 36 33 34 35 32 31 33 36 35 34 34 33 32 32 32 31 31 30 30 29 28 28 27 25 23
36 37 25 19 20 20 19 18 22 23 28 31 34 37 37 37 37 37 36 34 33 35 33 32 32 35 35 34 33 33 32 32 32 31 31 31 30 29 29 28 28 27 25 24

GFSNGP_sfc_30mbdewp_282.txt.gz
Dewpoint
21 21 19 19 21 21 20 20 12 12 10 8 10 12 16 18 26 31 37 36 34 33 32 32 33 34 33 33 33 32 33 33 35 36 36 37 37 36 36 35 34 34 33 31
14 15 19 18 18 18 20 22 17 16 10 13 13 13 13 18 19 30 37 37 35 33 32 32 33 33 33 33 33 32 32 32 34 35 35 35 36 36 35 35 34 33 33 31
12 11 10 16 19 18 17 18 19 16 15 11 10 13 16 18 21 22 37 37 35 33 33 32 32 33 33 33 32 31 31 32 33 34 34 35 35 35 35 34 34 34 33 33
10 11 11 10 16 15 15 15 16 15 15 14 13 14 16 17 28 28 30 37 36 34 33 33 33 33 33 32 31 31 30 31 33 33 34 34 34 34 35 35 34 34 33 33
7 8 9 9 10 12 11 15 22 26 28 27 27 24 16 19 22 31 34 37 37 36 35 34 33 33 33 32 31 31 30 31 32 32 33 33 33 34 35 34 33 32 32 32
8 6 5 7 8 10 12 13 29 28 28 28 31 27 24 24 25 32 38 39 38 36 36 34 33 33 33 31 30 30 30 30 31 32 32 32 33 34 34 34 32 30 30 32
9 8 6 8 9 11 8 17 23 25 22 24 28 30 32 32 31 32 39 39 38 37 36 34 34 33 33 32 30 30 30 30 30 31 31 32 33 33 33 32 30 29 30 29
17 16 10 7 16 26 27 27 25 21 22 18 19 28 28 31 33 35 39 39 38 37 36 35 34 33 33 32 32 31 29 29 30 30 29 31 33 32 31 30 29 28 30 30
16 13 20 22 21 25 31 20 28 19 23 23 16 17 24 26 29 31 36 38 38 37 36 36 34 33 33 33 32 31 29 28 29 29 28 31 31 31 29 29 30 30 30 30
4 5 5 11 24 15 15 26 31 21 13 22 19 16 18 22 25 27 32 36 37 37 36 36 35 34 34 33 32 30 28 28 29 28 29 30 30 29 29 30 31 29 30 30
5 6 6 6 6 9 11 12 15 13 9 12 18 17 15 18 19 25 27 31 35 37 36 36 35 34 34 33 31 29 28 28 28 28 29 28 29 28 29 29 31 29 29 29
8 7 7 7 7 5 6 6 6 7 8 8 16 19 16 17 16 22 25 29 32 36 37 36 34 34 33 32 30 29 27 28 28 27 28 28 28 26 27 27 26 26 29 26
8 8 8 8 8 7 6 7 6 7 7 6 8 16 17 13 15 19 24 29 32 36 37 36 34 33 33 32 31 28 27 28 28 27 28 29 28 26 23 22 24 24 24 22
10 9 8 8 7 7 7 7 8 7 7 6 7 9 15 14 13 17 24 28 33 34 36 36 34 33 33 32 31 28 28 28 27 28 28 29 28 28 26 23 21 20 22 21
12 11 10 9 8 8 8 8 8 7 7 7 8 9 13 18 17 17 23 24 33 34 36 36 34 33 34 32 30 28 28 27 28 29 29 29 29 28 26 24 20 17 19 18
9 11 10 9 9 9 9 9 9 8 9 10 9 9 10 12 14 16 22 23 34 35 34 36 34 34 34 33 30 29 28 27 28 29 30 29 29 28 25 22 19 18 16 17
8 9 11 12 14 16 14 12 9 9 11 10 10 11 9 11 14 16 21 25 38 36 35 36 35 35 34 32 29 29 29 28 29 30 29 29 29 28 26 24 21 19 17 17
10 12 13 15 18 19 20 21 20 15 13 12 12 13 12 13 16 17 23 29 39 37 35 36 35 35 34 31 30 30 29 29 30 30 30 30 30 29 28 27 24 21 23 19
21 21 23 26 26 27 27 26 26 22 17 15 15 15 15 17 19 22 26 33 34 36 36 36 34 34 33 31 31 31 30 30 31 31 30 31 31 29 28 26 24 25 21 18
21 20 21 24 25 25 26 29 30 28 18 17 14 14 18 18 18 22 29 27 29 37 39 36 34 34 33 31 32 32 31 31 32 31 31 30 29 28 27 26 26 26 22 20
13 14 17 25 27 28 27 28 31 29 20 17 19 20 23 26 27 30 30 27 30 38 40 34 35 35 33 32 33 32 32 32 31 31 31 30 29 28 27 27 27 24 21 20
13 15 17 23 29 31 32 33 34 30 20 17 15 16 17 19 24 32 33 27 33 39 38 36 36 35 33 32 33 33 33 32 32 32 31 31 29 29 28 28 27 26 23 23
14 18 26 29 30 31 36 32 30 25 20 19 18 17 15 18 23 28 30 35 38 39 38 37 36 33 32 33 34 33 33 32 33 31 32 31 30 29 28 28 28 27 26 26
23 25 29 32 31 31 34 26 22 19 20 20 19 19 22 24 25 27 32 36 39 37 38 37 34 32 32 34 34 34 33 33 33 32 32 31 31 30 29 28 28 27 27 26
29 30 30 31 32 35 27 18 18 19 18 18 20 22 21 22 28 34 38 39 37 37 37 34 32 32 34 35 34 34 34 34 33 32 31 31 30 29 29 28 28 27 27 25
28 29 32 34 28 22 19 16 18 20 20 22 22 25 26 25 27 36 39 39 36 36 37 33 33 33 35 35 35 34 34 33 32 31 31 30 30 29 29 28 28 27 26 25
30 33 32 34 20 20 20 19 21 22 23 23 22 23 31 34 35 38 38 37 36 36 34 34 33 34 36 35 34 34 33 32 32 31 30 30 30 29 28 28 27 27 26 25

GFSNGP_sfc_30mbdewp_288.txt.gz
Dewpoint
15 17 18 17 15 12 12 15 18 19 18 19 22 29 31 29 28 33 35 34 32 32 34 35 37 37 36 36 37 37 36 37 38 39 39 39 38 38 37 36 35 34 32 31
3 11 15 14 13 11 9 7 9 15 17 24 28 29 30 25 23 27 34 33 32 34 35 35 36 35 35 36 36 36 36 36 38 39 38 38 37 37 36 36 34 31 28 27
1 8 5 -0 4 3 0 3 5 6 13 26 27 27 23 19 19 19 27 32 32 33 34 34 34 34 35 35 36 36 36 37 38 38 38 37 37 37 36 34 31 28 25 25
6 4 -8 -5 6 4 5 11 20 21 21 21 20 20 22 20 20 20 20 23 27 37 34 35 35 35 35 35 35 35 35 36 38 38 37 37 37 36 35 34 30 27 24 25
5 4 4 4 1 -1 3 10 29 24 21 19 20 22 24 24 25 22 21 22 27 37 36 34 35 36 35 34 35 35 35 36 37 37 37 37 36 35 35 34 30 29 25 25
9 7 4 9 19 20 13 13 29 30 23 18 15 16 18 21 25 27 23 23 25 41 34 34 35 35 35 34 34 34 35 36 37 37 36 36 35 34 34 35 32 30 25 24
11 11 10 20 15 20 12 20 28 28 27 26 19 17 17 15 18 27 27 23 23 41 34 34 35 36 35 34 33 34 35 36 37 36 36 35 35 34 34 34 34 31 29 25
8 7 9 12 15 18 22 28 26 26 21 21 23 14 13 14 15 23 27 27 21 21 39 36 36 36 34 34 34 34 35 36 36 36 35 35 35 34 34 33 34 33 30 26
17 15 16 16 13 14 29 21 20 23 18 18 15 9 9 9 16 22 23 28 26 23 26 41 35 35 34 34 34 34 35 35 35 35 35 35 35 34 33 33 32 33 31 27
5 5 7 10 10 8 12 11 10 9 8 9 9 9 8 9 17 22 26 23 28 26 21 31 38 34 34 34 33 34 34 34 35 34 34 35 35 34 33 32 31 31 31 29
4 7 8 9 9 10 11 10 10 10 9 9 8 7 7 9 9 19 29 25 28 27 23 19 26 35 34 33 33 33 33 34 34 34 34 34 34 34 33 32 32 31 31 29
7 8 8 9 11 12 12 12 10 10 10 9 9 8 9 9 8 15 26 30 24 29 26 20 19 36 33 33 33 32 32 33 33 33 34 34 33 31 32 32 31 31 32 30
11 12 12 12 13 14 13 12 12 12 11 10 11 10 9 8 7 8 22 25 29 28 31 27 20 21 35 33 33 32 31 32 33 32 33 33 31 30 30 31 32 32 32 32
14 15 15 17 15 14 13 13 13 13 12 11 10 9 9 9 9 8 8 15 29 29 29 31 23 23 35 33 32 31 31 31 32 32 33 32 30 30 30 30 30 30 31 30
16 15 17 17 13 12 13 13 12 11 11 11 11 11 11 10 10 10 10 10 19 30 30 32 25 24 36 34 32 31 31 31 31 33 32 31 30 30 30 30 28 26 26 27
16 16 15 14 15 14 14 14 15 15 14 14 14 14 15 15 13 12 11 11 14 24 28 31 29 26 35 34 32 31 31 31 32 32 31 30 29 29 29 28 26 26 25 24
13 11 12 13 13 14 14 15 15 14 15 16 16 16 17 17 18 17 15 13 13 20 30 30 30 27 32 35 32 31 31 31 32 32 30 30 29 28 28 27 26 25 23 21
13 13 14 15 15 14 14 15 16 16 16 17 18 18 20 22 21 21 21 20 18 16 25 31 30 28 29 35 32 32 32 31 32 31 31 30 29 29 28 27 26 24 22 18
16 17 17 19 19 19 19 19 19 19 19 21 23 23 22 21 20 21 22 23 22 19 21 29 30 29 29 35 33 33 32 31 32 32 31 30 29 29 28 27 26 24 21 17
18 18 17 17 19 21 21 20 19 20 20 20 21 20 19 20 22 24 25 25 24 22 22 27 30 28 24 34 32 34 32 31 32 32 31 30 30 30 29 29 27 24 22 18
9 12 14 14 15 17 18 18 19 19 20 21 22 24 24 22 24 25 26 26 26 25 22 26 29 27 26 32 33 34 32 32 32 32 31 30 30 29 28 26 24 23 22 18
11 13 12 13 16 19 21 23 25 27 27 26 26 25 25 24 24 26 27 26 27 25 24 26 27 27 28 32 34 33 32 32 32 32 31 31 30 30 29 27 25 23 21 18
9 11 12 14 19 24 27 27 26 27 28 28 28 28 27 26 27 27 26 27 28 26 23 23 24 25 27 33 34 33 32 32 32 32 32 32 31 31 31 29 27 25 21 19
12 14 16 18 18 18 24 26 25 26 27 29 30 31 30 28 27 28 28 28 28 26 24 25 26 26 30 34 34 33 32 32 32 32 32 32 32 32 31 29 27 25 22 20
17 18 18 16 18 23 27 29 29 31 32 32 34 35 33 32 29 28 29 29 26 24 24 28 27 29 33 34 34 33 33 33 33 33 33 33 32 32 31 29 28 25 22 23
16 16 17 20 23 27 29 30 30 32 33 33 34 35 34 33 32 30 30 29 26 27 27 28 30 32 33 34 33 33 33 33 33 33 33 32 32 31 30 29 28 25 23 24
16 19 23 24 25 26 29 31 31 31 30 31 29 31 34 34 34 32 27 26 26 28 30 31 32 33 33 34 33 33 33 33 32 32 32 32 32 31 30 29 28 25 25 24

GFSNGP_sfc_30mbdewp_291.txt.gz
Dewpoint
9 8 9 15 17 15 12 14 13 17 15 15 25 30 23 20 20 21 22 23 31 37 40 42 41 41 40 40 40 39 38 38 38 39 39 40 40 38 38 37 36 36 35 35
1 1 8 11 13 14 13 11 10 8 6 23 23 22 20 21 21 21 21 22 23 30 35 37 38 38 40 41 41 40 38 38 38 38 39 39 39 37 37 36 35 34 33 33
3 5 3 -3 4 5 4 4 8 3 18 20 21 21 22 23 24 24 23 22 23 24 29 36 37 38 39 40 40 38 37 38 38 38 38 38 38 36 35 34 33 31 31 31
6 4 -9 -2 6 5 6 26 27 23 18 17 15 17 17 17 19 22 26 25 23 23 24 28 37 38 38 38 38 38 38 38 38 38 37 38 37 36 35 33 31 29 28 29
6 5 3 4 20 18 16 20 26 25 24 23 18 20 22 15 15 20 26 27 27 24 25 30 33 37 36 37 37 37 37 37 38 38 37 37 36 35 34 32 29 26 25 26
10 7 4 15 13 14 19 15 24 27 24 25 19 13 12 16 16 20 23 24 27 28 26 35 41 36 36 36 36 37 38 38 38 38 37 36 36 35 34 31 29 25 23 25
9 11 11 15 15 19 12 18 26 26 22 22 19 19 17 16 11 21 22 23 24 28 28 26 36 37 36 36 36 37 37 37 38 38 37 36 36 35 34 31 29 25 22 25
7 4 5 12 12 13 19 28 24 21 24 18 18 16 11 10 12 19 24 24 23 25 29 25 29 37 36 35 36 37 37 38 38 37 37 36 35 35 34 32 30 26 23 23
8 11 17 8 13 12 12 9 13 18 15 10 9 10 10 8 8 16 26 25 24 23 26 29 25 25 37 37 37 38 38 37 37 37 36 36 35 34 34 33 31 29 23 21
6 8 8 8 8 7 7 7 12 10 10 10 9 10 9 8 8 12 23 27 26 24 24 27 30 27 26 39 37 36 36 36 36 36 35 35 35 34 34 34 32 31 28 23
6 7 5 6 8 9 10 13 13 11 12 11 11 11 10 8 9 11 17 25 28 25 24 25 30 32 30 34 37 35 36 36 36 35 35 35 34 34 33 34 33 32 31 27
3 3 3 5 8 10 10 10 11 12 13 12 11 11 11 10 12 10 10 13 27 29 28 27 27 29 32 29 37 35 35 35 35 35 35 35 34 33 34 34 33 33 33 30
8 9 10 11 11 12 13 13 13 14 14 13 14 13 12 12 11 11 11 12 20 28 30 30 28 27 31 31 32 35 34 35 35 35 35 34 34 33 32 32 33 32 32 31
13 13 12 14 13 13 14 15 16 16 16 15 13 14 13 12 12 11 10 11 11 19 30 31 30 29 31 34 31 37 35 34 35 35 35 35 34 33 33 32 32 31 31 30
15 15 14 13 13 14 15 17 16 13 12 13 13 13 13 13 13 13 13 12 13 14 28 31 31 30 31 34 32 34 34 34 35 36 36 35 33 33 33 33 33 32 31 31
14 14 14 15 16 16 16 17 15 15 16 16 16 16 15 15 15 14 15 16 15 15 18 29 31 31 32 33 34 33 36 34 34 35 35 34 34 34 33 33 32 31 30 30
12 12 14 15 16 16 16 15 15 15 15 17 18 17 16 17 18 16 16 18 18 18 19 18 23 30 32 31 35 33 38 36 35 34 33 33 33 33 32 32 31 30 31 29
13 13 14 14 14 14 15 16 18 18 17 17 17 17 18 17 16 16 17 19 20 22 22 23 27 31 32 33 34 34 34 35 34 33 33 32 32 32 31 31 30 29 29 27
16 16 16 16 16 18 18 19 19 19 19 19 20 20 21 20 20 20 21 22 23 22 21 22 24 30 30 32 34 34 35 33 33 33 33 32 31 31 31 30 29 28 26 25
17 18 17 18 20 19 16 16 18 18 19 20 20 20 20 20 22 23 23 23 22 21 21 23 25 31 31 33 34 32 36 33 33 32 32 31 31 30 30 29 28 28 25 25
13 15 13 12 12 14 16 18 19 18 18 19 19 19 20 20 21 22 21 21 21 22 24 25 25 30 32 32 34 34 36 34 33 33 32 31 31 31 30 29 28 27 26 25
12 12 12 13 14 15 17 17 17 18 21 24 27 27 26 25 25 25 25 24 24 24 25 26 27 28 31 32 33 34 35 35 34 33 32 32 31 30 30 29 28 28 27 26
11 12 13 13 14 16 17 18 18 19 25 27 28 28 27 27 27 26 25 26 26 26 25 27 28 28 31 32 32 33 34 33 33 32 32 32 31 31 30 30 29 28 28 26
11 12 13 15 18 18 17 17 17 17 18 22 27 29 29 28 28 29 29 27 26 26 26 27 27 29 30 31 31 32 34 33 33 33 32 32 32 31 31 30 29 28 28 26
13 15 18 19 18 16 16 17 18 21 25 27 28 28 29 33 31 30 30 29 28 27 27 28 28 28 29 30 31 33 34 33 33 33 32 32 32 31 31 31 30 29 28 26
15 17 18 17 17 17 18 20 24 26 27 27 28 29 33 34 34 34 33 30 29 28 27 29 28 27 27 30 32 33 33 33 33 33 33 32 32 32 32 31 30 29 28 27
17 17 16 17 18 19 22 25 26 26 27 28 29 32 33 33 34 33 32 31 29 28 28 28 27 27 28 31 33 33 33 33 33 33 33 33 32 32 32 31 30 29 28 28

GFSNGP_sfc_30mbdewp_297.txt.gz
Dewpoint
5 3 1 1 2 3 11 14 16 17 16 22 22 22 19 18 17 21 24 24 25 27 30 30 29 36 46 50 50 50 48 46 46 46 45 44 42 41 41 41 40 39 39 37
-1 3 4 1 2 5 10 12 12 12 12 21 20 16 14 15 15 16 18 24 25 26 28 30 30 30 30 43 47 49 48 46 45 44 43 42 41 41 41 40 40 39 38 37
-2 6 1 -7 3 3 5 15 11 2 13 18 15 11 11 12 15 15 15 16 22 27 27 30 31 30 30 32 42 45 47 45 43 43 42 42 41 40 40 40 40 39 38 37
2 4 -8 3 17 17 9 21 20 20 21 19 17 12 11 11 11 14 15 16 17 22 28 29 30 32 34 35 38 43 44 44 42 42 41 41 40 39 39 39 38 38 38 38
6 2 -2 8 14 15 16 20 27 21 22 19 17 18 15 10 9 11 17 18 19 19 23 28 30 33 37 36 39 42 42 42 41 41 41 40 39 38 38 37 37 37 37 37
7 5 2 7 14 15 17 13 23 24 22 21 14 17 12 12 11 10 13 20 20 19 16 20 28 31 34 39 40 41 41 41 41 40 40 39 39 38 37 37 36 36 35 36
7 7 5 15 10 15 12 12 20 20 22 22 11 10 11 17 11 11 12 15 21 18 15 16 22 29 31 33 33 37 40 41 40 40 40 39 39 38 37 37 35 34 34 35
7 6 4 15 9 13 16 23 19 13 12 15 18 15 12 11 11 10 10 11 14 19 15 14 19 24 29 30 32 33 39 40 40 40 39 39 39 39 38 37 35 33 33 33
6 4 10 12 11 11 15 9 12 12 7 9 11 14 11 11 11 11 11 10 12 17 17 14 16 19 24 29 30 33 35 39 40 40 40 40 39 39 38 36 35 32 31 31
1 1 8 14 11 7 6 9 9 9 5 9 11 13 13 12 12 12 11 11 10 16 17 14 13 19 22 27 29 33 36 38 40 40 40 40 39 38 37 36 34 32 31 31
3 4 7 7 7 7 7 7 10 8 8 8 9 8 8 8 9 10 11 12 12 12 15 14 15 16 21 24 29 32 34 39 40 40 40 39 38 37 36 36 35 33 31 30
4 3 5 4 4 6 7 9 9 9 8 9 10 10 10 11 12 12 14 15 14 13 14 13 13 15 21 25 27 32 33 35 36 41 40 39 38 38 38 37 34 32 32 31
9 9 9 9 10 8 8 8 8 9 10 9 10 12 13 13 14 16 16 16 16 14 14 14 13 13 19 26 28 28 31 33 36 37 40 40 39 38 36 36 34 33 31 29
10 10 10 10 12 13 13 12 11 11 11 11 13 14 14 15 16 16 17 16 15 15 15 15 15 15 19 25 28 28 28 29 33 37 38 39 38 38 37 36 34 34 31 29
9 14 13 12 13 14 13 14 13 13 13 13 14 15 15 16 16 16 15 15 15 16 15 16 16 17 18 27 29 28 28 28 29 35 39 39 38 38 37 36 35 35 34 29
10 12 13 14 14 14 15 14 13 13 14 15 15 15 16 17 17 16 16 16 17 18 17 18 17 18 20 27 29 29 29 30 32 34 38 39 38 37 36 35 35 34 33 31
13 8 14 18 17 16 15 15 15 15 16 16 16 17 18 19 18 18 18 18 18 19 19 20 19 19 22 23 25 28 30 31 32 32 36 38 37 35 36 35 35 34 34 33
10 12 14 13 13 13 15 16 17 16 16 17 19 19 19 18 17 18 19 20 20 20 19 19 21 22 22 22 22 27 31 31 31 31 34 36 37 36 36 35 35 34 33 33
16 15 14 13 14 14 14 14 14 16 18 19 20 20 20 21 21 21 20 19 20 20 20 21 22 23 22 23 23 28 32 31 30 31 33 35 35 35 35 35 35 35 34 32
16 18 20 19 19 18 16 17 18 18 19 20 22 22 22 22 22 22 21 19 19 18 19 21 22 23 24 25 25 28 31 30 29 31 32 34 35 34 34 34 34 34 33 32
8 9 10 12 13 15 15 16 20 19 19 18 18 18 18 19 19 20 20 20 19 20 21 23 24 24 25 25 26 28 27 28 28 29 31 32 34 34 33 33 34 34 33 33
4 5 7 9 10 11 12 12 12 14 15 15 17 18 18 18 19 20 21 20 21 21 23 24 25 25 26 26 27 27 27 27 28 30 31 33 33 33 33 33 33 33 33 32
5 6 8 10 12 14 15 14 14 15 16 17 18 19 19 19 20 19 20 21 23 25 26 27 27 26 26 27 27 27 27 28 29 30 31 32 34 33 33 32 33 33 33 32
7 7 10 12 12 12 13 13 13 13 15 16 17 19 19 20 21 22 23 23 23 25 26 28 29 29 27 27 27 27 27 28 29 30 30 33 33 33 32 32 33 33 33 32
8 10 12 13 12 12 12 14 14 15 16 17 18 20 21 21 21 21 22 23 24 25 27 27 27 28 29 29 29 29 29 29 29 29 30 32 33 33 32 32 33 33 32 32
11 12 12 12 12 14 15 16 17 17 18 19 21 21 22 22 23 24 25 27 28 29 29 30 30 30 31 31 30 30 30 29 29 29 32 33 33 32 32 32 33 33 33 32
16 16 15 16 16 18 19 19 20 20 20 20 20 22 24 25 26 27 28 28 29 29 30 31 31 32 31 31 29 30 30 30 31 32 34 33 33 32 32 32 33 33 33 32

GFSNGP_sfc_30mbdewp_300.txt.gz
Dewpoint
16 18 13 6 6 8 13 17 15 12 19 23 24 22 19 19 18 19 23 26 27 29 32 34 34 34 35 45 51 52 51 51 49 49 48 47 47 46 46 45 44 41 39 38
-1 4 8 10 10 1 5 11 14 20 20 22 21 19 18 17 16 17 17 19 25 28 30 32 33 35 35 36 43 49 51 49 49 48 48 47 46 46 45 45 43 42 40 37
-0 1 1 -1 2 9 4 5 10 14 18 19 16 16 16 17 16 16 17 17 17 23 28 31 32 35 39 39 37 43 47 48 47 47 46 45 44 44 43 43 42 40 39 38
-0 -1 -2 4 14 13 5 11 15 15 16 17 14 15 14 14 15 16 17 18 17 19 21 27 32 34 39 39 37 42 44 46 46 45 44 44 43 43 43 43 41 40 39 38
5 -1 -6 -4 9 13 11 13 19 17 17 17 17 16 14 12 13 14 15 16 16 16 17 20 27 32 36 40 41 41 42 43 44 44 43 44 43 42 42 41 41 41 40 39
5 3 -1 5 12 15 15 3 22 21 21 19 17 16 15 13 13 13 13 14 15 15 14 15 19 28 33 35 36 37 40 42 42 43 44 42 42 43 43 42 41 40 39 39
4 3 0 2 12 15 8 10 21 21 20 21 17 14 14 15 14 13 12 11 11 14 14 13 14 18 27 31 33 34 36 40 41 42 43 42 42 42 40 40 39 38 38 38
3 2 2 5 11 7 19 20 17 17 19 18 18 17 15 13 14 13 13 12 10 9 12 13 12 13 15 26 30 32 35 37 40 41 41 41 41 40 39 38 37 37 37 37
4 3 6 10 10 13 14 11 11 12 12 7 4 4 7 7 7 7 8 8 9 8 9 12 12 10 12 16 23 31 34 36 38 40 40 41 40 40 39 39 37 36 36 36
0 2 2 5 6 11 13 9 7 6 6 7 6 4 3 4 4 4 4 5 6 8 8 9 12 11 11 15 18 24 33 35 39 39 40 41 40 40 39 39 38 36 36 36
2 1 1 1 2 2 5 5 6 5 3 6 6 4 4 4 3 3 3 4 4 7 8 9 9 10 11 11 17 19 24 34 38 40 41 40 41 41 40 40 39 38 37 37
6 4 2 1 1 4 4 2 0 0 2 6 6 7 7 5 6 6 7 8 8 9 10 10 9 10 10 10 13 20 20 23 32 38 40 41 40 39 40 39 38 38 39 40
6 9 6 4 7 5 3 2 3 3 5 6 6 7 7 7 8 10 10 11 11 11 12 14 11 10 11 12 14 21 21 20 21 23 30 38 40 39 38 38 39 38 37 36
13 12 8 7 4 5 4 3 4 5 7 8 8 8 8 9 11 11 11 11 11 13 14 13 12 12 13 14 15 17 22 23 21 20 24 31 36 40 39 38 36 37 36 36
3 4 4 4 4 3 1 3 6 7 7 9 10 10 10 11 12 12 11 11 12 12 12 12 13 13 14 15 15 16 21 22 21 22 24 30 33 38 39 39 37 36 36 34
0 1 2 1 -1 0 4 7 10 9 10 12 12 12 13 13 13 12 12 12 12 12 12 13 14 14 15 16 15 16 20 24 25 25 24 25 30 34 38 38 37 36 36 35
3 3 3 4 3 4 4 8 11 13 15 15 14 13 14 13 13 13 14 14 13 14 14 15 16 16 17 17 17 17 19 22 25 26 26 26 27 30 36 37 36 36 36 36
11 10 10 8 7 6 7 12 11 11 12 13 14 14 14 14 14 13 13 14 14 16 16 15 15 15 15 16 17 21 21 22 23 27 28 29 28 29 33 37 36 35 36 37
8 7 10 14 14 12 12 11 11 12 13 13 15 19 19 18 18 17 17 19 22 20 20 18 15 17 16 17 19 24 24 23 24 26 29 30 29 29 31 35 35 35 36 35
10 8 4 5 7 11 15 13 11 12 14 16 20 23 24 25 25 25 23 18 16 19 17 16 15 16 17 19 22 26 28 28 28 29 30 30 30 31 34 35 35 34 34 34
7 7 3 2 1 1 5 5 6 5 8 12 16 21 25 26 25 24 23 21 19 17 17 19 20 23 23 23 23 27 29 29 29 29 31 31 32 32 32 35 34 34 34 33
6 8 7 4 3 4 3 3 4 5 6 9 15 18 19 17 17 19 22 20 21 20 22 24 25 23 24 25 26 28 29 29 29 30 30 31 32 33 33 34 34 33 33 33
13 9 8 9 10 10 9 10 9 8 10 13 16 17 16 17 18 17 19 18 21 23 23 25 26 25 25 27 28 28 29 29 29 30 30 31 32 33 33 33 34 34 34 33
19 16 14 11 10 9 7 7 5 6 6 7 11 16 16 18 21 22 22 22 23 24 25 26 26 27 28 30 30 30 30 29 29 30 30 30 32 34 34 34 33 34 34 33
18 18 16 14 12 11 9 8 7 8 8 10 11 13 16 17 20 21 23 25 25 25 26 26 26 26 27 28 30 31 30 30 30 30 30 31 32 33 34 33 33 33 33 33
13 14 17 16 14 13 13 13 15 15 14 16 18 20 22 23 23 24 25 25 23 24 25 27 28 29 29 29 30 31 31 31 30 30 30 30 30 31 32 33 33 33 33 33
14 14 13 14 15 15 17 18 19 20 20 21 22 23 23 25 25 25 25 26 27 27 28 29 30 30 32 32 31 31 32 32 31 31 31 31 30 31 32 33 33 33 33 33

GFSNGP_sfc_30mbdewp_306.txt.gz
Dewpoint
9 18 19 21 23 20 16 12 11 17 22 23 24 24 25 26 28 29 31 32 33 34 36 37 39 39 49 52 54 54 54 54 53 53 53 52 51 51 51 50 48 46 45 43
5 3 9 19 18 18 16 14 11 13 32 33 24 23 23 23 24 26 27 29 30 31 32 35 39 39 40 45 51 52 52 52 51 51 51 51 50 50 49 48 47 46 44 44
2 2 4 4 12 16 17 15 12 18 34 32 23 19 19 18 18 19 21 22 24 26 30 33 37 41 40 40 49 49 51 50 50 49 49 49 50 49 49 47 47 46 45 44
3 1 -1 5 14 16 20 20 18 16 32 33 28 22 20 20 19 19 19 19 20 22 23 27 33 38 42 43 44 48 48 48 48 48 48 48 48 48 48 47 47 46 45 44
5 2 0 -1 5 9 14 17 26 21 23 24 24 18 16 19 20 20 21 21 19 19 20 22 26 33 35 37 39 42 44 46 46 46 46 46 46 46 47 47 46 46 44 43
5 4 0 4 12 12 12 2 18 25 28 28 24 14 15 16 17 17 17 17 19 19 18 17 19 25 31 31 33 35 37 41 45 46 45 45 45 45 46 46 46 45 44 43
3 3 1 2 8 11 4 18 31 30 30 30 29 28 24 18 17 17 16 15 15 15 18 18 16 17 20 23 27 30 34 36 41 44 45 45 45 45 45 45 45 45 44 45
5 5 4 9 10 10 20 22 20 31 32 32 30 24 24 20 17 16 16 15 14 13 14 16 16 15 14 16 17 21 30 34 37 43 43 45 44 44 44 44 45 44 44 44
10 13 12 17 15 18 21 18 17 17 17 17 15 13 14 14 13 13 13 11 10 10 11 13 13 14 13 14 15 16 20 28 36 41 43 44 44 43 43 43 43 43 43 43
2 3 4 7 9 11 12 17 15 13 12 11 10 10 10 11 11 9 9 9 7 6 6 7 10 11 12 13 12 13 18 20 24 36 40 43 43 43 42 41 41 41 41 40
9 11 10 9 12 13 14 14 14 16 13 12 13 9 7 5 6 9 8 8 7 7 8 8 8 9 9 10 11 12 13 18 21 26 37 39 42 42 41 42 41 41 40 40
11 8 6 6 7 8 8 10 8 11 15 10 7 10 6 3 5 6 9 9 8 8 9 9 9 8 10 10 11 12 14 15 19 24 26 33 38 41 42 42 41 40 41 40
3 5 6 8 14 12 6 3 6 8 15 14 10 7 3 2 3 6 8 8 9 10 9 10 10 10 10 12 15 14 14 16 17 20 22 23 29 37 38 40 40 40 39 39
1 1 2 2 4 3 4 3 11 12 19 17 12 6 4 3 2 4 5 7 8 9 10 10 11 11 12 13 14 14 15 15 16 18 22 24 22 26 34 37 38 39 39 38
7 5 4 3 3 -0 -2 3 5 7 10 11 8 5 3 2 4 4 5 7 8 8 9 11 12 12 12 13 13 14 15 17 17 20 23 26 26 27 28 28 31 36 39 38
1 4 5 7 7 12 9 5 4 4 4 5 6 5 4 4 6 8 8 9 11 10 11 12 13 13 13 15 14 17 18 18 18 18 19 21 26 29 30 30 31 33 35 36
7 6 6 8 14 17 15 16 13 13 14 10 10 10 6 6 15 15 12 12 12 13 14 15 15 14 15 17 17 18 20 22 22 21 23 25 24 26 30 31 32 32 33 36
1 3 1 2 4 5 9 10 9 6 13 17 19 14 14 15 18 19 19 20 19 17 16 16 15 16 17 17 19 20 22 22 23 25 26 27 28 29 30 31 31 31 32 35
3 5 5 3 7 9 11 11 12 9 7 17 21 21 25 26 24 23 23 24 24 21 20 19 17 17 18 18 18 21 23 23 23 24 26 28 28 29 29 30 30 31 32 33
7 6 8 11 12 10 10 13 16 15 8 8 19 23 25 26 27 25 23 21 20 22 22 22 22 21 21 22 22 23 24 24 23 23 24 25 26 26 28 28 28 30 32 34
13 13 13 15 16 17 16 15 15 16 15 7 9 16 17 23 24 26 25 24 24 23 22 22 21 22 21 20 20 21 25 27 27 26 26 26 27 27 27 28 29 30 32 34
18 17 18 17 18 19 17 16 13 14 17 15 12 16 18 17 18 22 26 23 23 23 24 24 23 22 21 20 21 22 24 24 24 24 25 27 28 29 30 30 30 32 33 35
20 19 19 23 24 20 19 18 15 14 17 17 15 13 14 15 15 14 14 16 21 23 23 23 22 22 22 23 25 25 26 26 26 26 26 26 27 28 30 31 32 34 34 35
19 20 20 21 19 17 15 13 13 13 15 16 13 14 13 13 14 16 17 19 21 21 22 22 23 25 25 27 28 28 28 27 27 27 27 28 29 30 31 31 32 33 35 35
21 22 21 19 18 19 16 13 13 15 17 16 15 13 12 13 14 15 16 18 20 21 20 22 23 23 24 25 26 26 26 26 27 29 30 30 30 31 31 32 32 32 33 34
21 22 23 21 19 18 18 17 17 17 18 19 19 18 16 14 13 14 16 18 20 20 22 24 27 29 28 27 27 27 28 28 28 28 29 30 31 32 33 32 32 32 33 34
19 20 21 22 21 21 23 22 21 20 20 20 20 21 21 22 23 22 22 21 22 22 24 26 27 27 27 28 30 30 30 30 30 30 30 30 31 32 32 32 33 33 33 33